Carver, MA

6:32 PM EST on February 05, 2016 (GMT -0500)
Plymouth Municipal

Weather History for KPYM - March, 2014

Change the Weather History Date:

Thursday, March 13, 2014

  Actual Average Record
Temperature  
Mean Temperature 30 °F -  
Max Temperature 39 °F 44 °F 68 °F (1957)
Min Temperature 17 °F 25 °F 7 °F (1984)
Degree Days  
Heating Degree Days 34    
Moisture  
Dew Point 16 °F    
Average Humidity 73    
Maximum Humidity 89    
Minimum Humidity 44    
Precipitation  
Precipitation 0.04 in - - ()
Sea Level Pressure  
Sea Level Pressure 29.32 in    
Wind  
Wind Speed 15 mph (NW)    
Max Wind Speed 22 mph    
Max Gust Speed 32 mph    
Visibility 4 miles    
Events Fog , Rain , Snow    
Averages and records for this station are not official NWS values.
T = Trace of Precipitation, MM = Missing Value Source: NWS Daily Summary

Daily Weather History Graph

Daily Weather History Graph

Search for Another Location

Airport or City:

Trip Planner

Search our weather history database for the weather conditions in past years. The results will help you decide how hot, cold, wet, or windy it might be!

Date:

Astronomy

Mar. 13, 2014 Rise Set
Actual Time 6:58 AM EDT 6:47 PM EDT
Civil Twilight 6:30 AM EDT 7:14 PM EDT
Nautical Twilight 5:58 AM EDT 7:47 PM EDT
Astronomical Twilight 5:25 AM EDT 8:20 PM EDT
Moon 4:08 PM EDT (3/13) 5:05 AM EDT (3/13)
Length of Visible Light 12h 44m
Length of Day
11h 48m
Waxing Gibbous, 91% of the Moon is Illuminated
Mar 13
Waxing Gibbous
Mar 16
Full
Mar 23
Last Quarter
Mar 30
New
Apr 7
First Quarter

Hourly Weather History & Observations

Time (EDT) Temp. Windchill Dew Point Humidity Pressure Visibility Wind Dir Wind Speed Gust Speed Precip Events Conditions
12:28 AM 43.0 °F 35.4 °F 39.9 °F 89% 28.97 in 8.0 mi North 16.1 mph 24.2 mph 0.02 in Rain Light Rain
12:36 AM 42.1 °F 34.2 °F 39.0 °F 89% 28.97 in 7.0 mi North 16.1 mph 23.0 mph 0.02 in Rain Light Rain
12:52 AM 39.9 °F 32.5 °F 37.0 °F 89% 28.98 in 8.0 mi North 12.7 mph - 0.03 in Rain Light Rain
1:52 AM 37.0 °F 27.7 °F 33.1 °F 86% 29.04 in 8.0 mi North 16.1 mph 21.9 mph 0.00 in Rain Light Rain
2:52 AM 30.9 °F 18.1 °F 28.0 °F 89% 29.01 in 10.0 mi North 21.9 mph 27.6 mph 0.01 in   Overcast
3:52 AM 30.0 °F 18.3 °F 26.1 °F 85% 29.03 in 10.0 mi North 17.3 mph 24.2 mph 0.00 in   Overcast
4:39 AM 28.9 °F 19.2 °F 25.0 °F 85% 29.08 in 2.5 mi North 11.5 mph 23.0 mph 0.00 in Snow Light Snow
4:48 AM 28.4 °F 18.5 °F 24.8 °F 86% 29.10 in 1.2 mi North 11.5 mph - 0.00 in Snow Light Snow
4:52 AM 28.9 °F 18.6 °F 25.0 °F 85% 29.10 in 1.0 mi North 12.7 mph - 0.00 in Snow Light Snow
5:18 AM 28.9 °F 19.2 °F 25.0 °F 85% 29.10 in 3.0 mi North 11.5 mph - 0.00 in Snow Light Snow
5:29 AM 28.9 °F 19.2 °F 24.1 °F 82% 29.11 in 4.0 mi North 11.5 mph 19.6 mph 0.00 in Rain Light Freezing Rain
5:52 AM 28.0 °F 17.0 °F 23.0 °F 81% 29.11 in 5.0 mi North 13.8 mph 20.7 mph 0.00 in Rain Light Freezing Rain
5:58 AM 28.0 °F 15.7 °F 23.0 °F 81% 29.11 in 6.0 mi North 17.3 mph 20.7 mph 0.00 in   Overcast
6:13 AM 27.0 °F 15.2 °F 21.9 °F 81% 29.12 in 10.0 mi North 15.0 mph 26.5 mph 0.00 in   Overcast
6:52 AM 26.1 °F 15.6 °F 21.0 °F 81% 29.15 in 8.0 mi NNW 11.5 mph 21.9 mph 0.00 in   Overcast
7:13 AM 26.1 °F 14.5 °F 21.0 °F 81% 29.17 in 2.0 mi North 13.8 mph 19.6 mph 0.00 in Snow Light Snow
7:25 AM 25.0 °F 13.1 °F 19.9 °F 81% 29.19 in 0.8 mi North 13.8 mph 25.3 mph 0.00 in Snow Light Snow
7:31 AM 25.0 °F 13.1 °F 19.9 °F 81% 29.19 in 0.2 mi North 13.8 mph - 0.00 in Snow Heavy Snow
7:49 AM 24.8 °F 12.9 °F 19.4 °F 80% 29.21 in 0.2 mi NNW 13.8 mph - 0.00 in Fog , Snow Snow
7:52 AM 24.1 °F 11.0 °F 19.9 °F 84% 29.21 in 0.2 mi NNW 16.1 mph - 0.00 in Fog , Snow Light Snow
7:54 AM 24.1 °F 12.5 °F 19.9 °F 84% 29.21 in 0.5 mi NNW 12.7 mph - 0.00 in Fog , Snow Light Snow
8:13 AM 23.0 °F 9.6 °F 18.0 °F 81% 29.24 in 0.8 mi NW 16.1 mph 23.0 mph 0.00 in Snow Light Snow
8:20 AM 23.0 °F 11.7 °F 17.1 °F 78% 29.24 in 2.0 mi NW 11.5 mph 23.0 mph 0.00 in Snow Light Snow
8:23 AM 23.0 °F 11.1 °F 17.1 °F 78% 29.25 in 4.0 mi NW 12.7 mph 21.9 mph 0.00 in Snow Light Snow
8:49 AM 23.0 °F 11.7 °F 17.6 °F 80% 29.26 in 1.8 mi WNW 11.5 mph - 0.00 in Snow Light Snow
8:52 AM 21.9 °F 9.2 °F 17.1 °F 82% 29.27 in 1.2 mi WNW 13.8 mph 19.6 mph 0.00 in Snow Light Snow
9:02 AM 21.9 °F 8.2 °F 16.0 °F 78% 29.27 in 0.5 mi NW 16.1 mph 24.2 mph 0.00 in Snow Snow
9:48 AM 21.2 °F 7.3 °F 15.8 °F 80% 29.30 in 0.8 mi NW 16.1 mph 23.0 mph 0.00 in Snow Light Snow
9:52 AM 21.0 °F 8.1 °F 15.1 °F 78% 29.31 in 1.0 mi NW 13.8 mph - 0.00 in Snow Light Snow
10:04 AM 21.0 °F 7.6 °F 15.1 °F 78% 29.31 in 0.5 mi WNW 15.0 mph - 0.00 in Snow Snow
10:32 AM 19.0 °F 5.0 °F 12.9 °F 77% 29.33 in 1.0 mi WNW 15.0 mph 23.0 mph 0.00 in Snow Light Snow
10:52 AM 19.0 °F 4.0 °F 12.0 °F 74% 29.35 in 1.2 mi WNW 17.3 mph 24.2 mph 0.00 in Snow Light Snow
11:10 AM 19.0 °F 3.6 °F 10.9 °F 71% 29.36 in 2.5 mi WNW 18.4 mph 26.5 mph 0.00 in Snow Light Snow
11:18 AM 19.0 °F 3.6 °F 10.9 °F 71% 29.36 in 3.0 mi WNW 18.4 mph 25.3 mph 0.00 in Snow Light Snow
11:52 AM 19.0 °F 4.0 °F 10.9 °F 71% 29.38 in 1.8 mi WNW 17.3 mph 25.3 mph 0.00 in Snow Light Snow
12:04 PM 19.9 °F 5.7 °F 10.9 °F 68% 29.38 in 3.0 mi WNW 16.1 mph 26.5 mph 0.00 in Snow Light Snow
12:16 PM 19.9 °F 4.8 °F 10.9 °F 68% 29.38 in 2.0 mi WNW 18.4 mph 25.3 mph 0.00 in Snow Light Snow
12:24 PM 19.9 °F 7.3 °F 12.0 °F 71% 29.39 in 2.5 mi WNW 12.7 mph 24.2 mph 0.00 in Snow Light Snow
12:29 PM 19.9 °F 6.7 °F 12.0 °F 71% 29.40 in 3.0 mi WNW 13.8 mph - 0.00 in Snow Light Snow
12:36 PM 19.9 °F 5.7 °F 10.9 °F 68% 29.40 in 2.5 mi WNW 16.1 mph 25.3 mph 0.00 in Snow Light Snow
12:47 PM 19.4 °F 5.5 °F 12.2 °F 74% 29.40 in 3.0 mi WNW 15.0 mph 23.0 mph 0.00 in Snow Light Snow
12:52 PM 19.9 °F 4.8 °F 10.9 °F 68% 29.42 in 2.5 mi WNW 18.4 mph 24.2 mph 0.00 in Snow Light Snow
1:04 PM 19.9 °F 5.7 °F 12.0 °F 71% 29.41 in 3.0 mi NW 16.1 mph - 0.00 in Snow Light Snow
1:52 PM 19.0 °F 3.2 °F 10.0 °F 68% 29.44 in 4.0 mi WNW 19.6 mph 25.3 mph 0.00 in Snow Light Snow
2:39 PM 19.0 °F 4.0 °F 10.0 °F 68% 29.46 in 4.0 mi NW 17.3 mph 24.2 mph 0.00 in Snow Light Snow
2:52 PM 19.9 °F 4.3 °F 10.0 °F 65% 29.48 in 5.0 mi WNW 19.6 mph 26.5 mph 0.00 in Snow Light Snow
3:11 PM 19.9 °F 3.9 °F 9.0 °F 62% 29.48 in 9.0 mi NW 20.7 mph 27.6 mph 0.00 in   Overcast
3:52 PM 21.0 °F 5.4 °F 6.1 °F 53% 29.52 in 10.0 mi WNW 20.7 mph 31.1 mph 0.00 in   Overcast
4:52 PM 19.9 °F 3.9 °F 6.1 °F 55% 29.56 in 10.0 mi WNW 20.7 mph 31.1 mph N/A   Overcast
5:52 PM 21.0 °F 8.6 °F 6.1 °F 53% 29.61 in 10.0 mi NW 12.7 mph 21.9 mph N/A   Overcast
6:52 PM 19.9 °F 4.8 °F 3.9 °F 50% 29.67 in 10.0 mi NW 18.4 mph 31.1 mph N/A   Overcast
7:52 PM 19.0 °F 5.6 °F 3.9 °F 52% 29.73 in 10.0 mi WNW 13.8 mph - N/A   Clear
8:52 PM 19.0 °F 3.2 °F 1.9 °F 47% 29.80 in 10.0 mi NW 19.6 mph 32.2 mph N/A   Partly Cloudy
9:52 PM 19.0 °F 5.0 °F 1.0 °F 46% 29.86 in 10.0 mi NW 15.0 mph 28.8 mph N/A   Clear
10:52 PM 18.0 °F 5.4 °F -0.9 °F 44% 29.90 in 10.0 mi WNW 11.5 mph - N/A   Clear
11:52 PM 17.1 °F 3.6 °F -0.0 °F 47% 29.93 in 10.0 mi WNW 12.7 mph - N/A   Clear